This is the latest recevied weather packets stored in our database for station/object K5MGY. If no packets are shown the sender has not sent any weather packets the latest 1 day(s).
| Time | Temp. | Humidity | Pressure | Rain* | Wind** | Luminosity | Snow |
|---|---|---|---|---|---|---|---|
| 1778007424 | 31.11° C | 57% | 1029 hPa | 0 mm | 0.89 m/s, 259° | 619 W/m² | - |
| 1778007121 | 31.11° C | 60% | 1029.2 hPa | 0 mm | 1.34 m/s, 204° | 456 W/m² | - |
| 1778006817 | 30.56° C | 59% | 1029.1 hPa | 0 mm | 0.89 m/s, 265° | 513 W/m² | - |
| 1778006514 | 30.56° C | 61% | 1029.2 hPa | 0 mm | 1.34 m/s, 140° | 682 W/m² | - |
| 1778006211 | 30.56° C | 61% | 1029.2 hPa | 0 mm | 0.45 m/s, 293° | 573 W/m² | - |
| 1778005909 | 30.56° C | 62% | 1029.2 hPa | 0 mm | 0 m/s | 357 W/m² | - |
| 1778005604 | 30.56° C | 60% | 1029.3 hPa | 0 mm | 1.34 m/s, 220° | 585 W/m² | - |
| 1778005302 | 30° C | 61% | 1029.3 hPa | 0 mm | 0.89 m/s, 268° | 483 W/m² | - |
| 1778004998 | 30° C | 60% | 1029.2 hPa | 0 mm | 1.79 m/s, 237° | 479 W/m² | - |
| 1778004696 | 30° C | 63% | 1029.5 hPa | 0 mm | 0 m/s | 616 W/m² | - |
| 1778004391 | 30° C | 62% | 1029.4 hPa | 0 mm | 1.34 m/s, 151° | 535 W/m² | - |
| 1778004089 | 30° C | 63% | 1029.4 hPa | 0 mm | 0.45 m/s, 145° | 407 W/m² | - |
| 1778003785 | 29.44° C | 63% | 1029.4 hPa | 0 mm | 0.45 m/s, 171° | 486 W/m² | - |
| 1778003482 | 29.44° C | 63% | 1029.4 hPa | 0 mm | 0.45 m/s, 204° | 508 W/m² | - |
| 1778003178 | 29.44° C | 63% | 1029.2 hPa | 0 mm | 1.34 m/s, 118° | 471 W/m² | - |
| 1778002874 | 28.89° C | 64% | 1029.4 hPa | 0 mm | 1.34 m/s, 157° | 632 W/m² | - |
| 1778002571 | 28.89° C | 64% | 1029.4 hPa | 0 mm | 0.89 m/s, 183° | 270 W/m² | - |
| 1778002268 | 28.89° C | 63% | 1029.5 hPa | 0 mm | 2.24 m/s, 146° | 374 W/m² | - |
| 1778001966 | 28.89° C | 64% | 1029.5 hPa | 0 mm | 0.89 m/s, 154° | 361 W/m² | - |
| 1778001662 | 28.89° C | 64% | 1029.6 hPa | 0 mm | 0.45 m/s, 152° | 257 W/m² | - |
| 1778001357 | 28.33° C | 65% | 1029.3 hPa | 0 mm | 0.45 m/s, 168° | 248 W/m² | - |
| 1778001054 | 28.33° C | 65% | 1029.5 hPa | 0 mm | 1.34 m/s, 217° | 308 W/m² | - |
| 1778000751 | 28.89° C | 64% | 1029.7 hPa | 0 mm | 1.34 m/s, 166° | 270 W/m² | - |
| 1778000447 | 28.89° C | 65% | 1029.6 hPa | 0 mm | 0.45 m/s, 124° | 312 W/m² | - |
| 1778000142 | 28.89° C | 64% | 1029.8 hPa | 0 mm | 1.34 m/s, 167° | 308 W/m² | - |
* Rain latest hour (hover to see other rain measurements)
** Current wind speed in m/s (hover to see current wind gust speed)